Location: Unspecified
(49.9820°N, 20.4363°E)
Time: 07:03:22
(UTC+02:00)

Explorer 11/Cluster Stage 4 - Visible Passes

Search period start: 14 May 2026 00:00
Search period end: 24 May 2026 00:00
Orbit: 463 x 1174 km, 28.8° (Epoch: 13 May)

Date Brightness Start Highest point End Pass type
(mag) Time Alt. Az. Time Alt. Az. Time Alt. Az.
18 May 9.0 22:21:08 10° SSW 22:21:52 11° S 22:21:52 11° S visible
19 May 8.8 21:55:40 10° SSW 21:58:09 12° S 21:58:59 12° S visible
20 May 8.9 21:30:21 10° SSW 21:33:14 12° S 21:35:55 10° SSE visible
21 May 8.9 21:05:09 10° SSW 21:08:17 13° S 21:11:22 10° SSE visible
21 May 9.0 22:52:35 10° SSW 22:53:54 11° SSW 22:53:54 11° SSW visible
22 May 8.9 22:27:18 10° SSW 22:29:54 12° S 22:30:34 12° S visible
23 May 9.0 22:02:06 10° SSW 22:04:57 12° S 22:07:08 11° S visible
